Regional Weather Roundup
Issued by NWS Kansas City/Pleasant Hill, MO

Current Version | Previous Version | Text Only | Print | Product List | Glossary On
Versions: 1 2 3 4 5 6 7 8 9 10 11 12 13 14 15 16 17 18 19 20 21 22 23 24 25 26 27 28 29 30 31 32 33 34 35 36 37 38 39 40 41 42 43 44 45 46 47 48 49 50
000
ASUS43 KEAX 242210
RWREAX

WEATHER ROUNDUP FOR EASTERN KANSAS AND NORTHWEST MISSOURI
NATIONAL WEATHER SERVICE KANSAS CITY/PLEASANT HILL MO
500 PM CDT WED AUG 24 2016

KSZ040-057-103>105-MOZ028-029-037-043-242300-
...KANSAS CITY METROPOLITAN AREA...

CITY           SKY/WX    TMP DP  RH WIND       PRES   REMARKS
K.C. INTL      PTSUNNY   84  71  65 W7        30.01R
K.C. DOWNTOWN  MOSUNNY   87  70  56 NW6       29.98S HX  92
LEES SUMMIT    PTSUNNY   87  72  60 S5        30.00S HX  93
OLATHE - IXD   MOSUNNY   87  72  60 S6        30.00S HX  93
OLATHE - OJC   CLOUDY    85  71  63 S6        30.00S HX  90
LAWRENCE       CLOUDY    89  71  55 S5        29.98F HX  95

$$

MOZ001>008-011>017-020>025-030>033-038>040-044>046-053-054-242300-
...NORTHERN AND CENTRAL MISSOURI...

CITY           SKY/WX    TMP DP  RH WIND       PRES   REMARKS
ST. JOSEPH     PTSUNNY   80  73  79 SW9       30.00R
MOSBY          PTCLDY    84  70  61 W6        30.00R
WHITEMAN AFB   PTSUNNY   88  75  65 S5        29.99S HX  98
CLINTON        MOSUNNY   90  75  62 S3        29.99F HX 100
SEDALIA        MOSUNNY   90  74  59 S8        30.01F HX  99
WARSAW         NOT AVBL
CHILLICOTHE      N/A     82  74  76 S6        30.00F
KIRKSVILLE     PTSUNNY   80  74  81 W5        30.01F

$$

MOZ041-047>049-056>058-063>065-088>090-097-242300-
...EASTERN AND SOUTHERN MISSOURI...

CITY           SKY/WX    TMP DP  RH WIND       PRES   REMARKS
ST. LOUIS INTL PTSUNNY   94  70  45 W8        30.01R HX 100
SPIRIT OF STL  PTSUNNY   91  74  57 SW7       29.99R HX 100
COLUMBIA       MOSUNNY   90  75  61 SW9       30.01S HX 100
JEFFERSON CITY SUNNY     90  72  55 SW8       29.99S HX  97
ROLLA          SUNNY     88  75  65 SW9       30.03F HX  97
OSAGE BEACH    SUNNY     91  75  59 S8        30.02F HX 101
SPRINGFIELD    MOSUNNY   91  69  48 S14       30.03F HX  96
BRANSON        MOSUNNY   90  73  58 S7        30.08F HX  98
JOPLIN         MOSUNNY   94  67  41 SW15      29.99F HX  97
WEST PLAINS    SUNNY     89  71  55 S10       30.09F HX  95

$$

IAZ060-094-KSZ022-034>040-054-083-096-NEZ052-066-093-242300-
...KANSAS...SOUTHEAST NEBRASKA AND IOWA...

CITY           SKY/WX    TMP DP  RH WIND       PRES   REMARKS
TOPEKA         CLOUDY    88  70  55 E7        29.98F HX  93
MANHATTAN      CLOUDY    83  69  62 W3        29.99S
EMPORIA        PTSUNNY   89  69  51 SW9       29.97S HX  93
CHANUTE        MOSUNNY   93  70  46 S13       29.96F HX  99
WICHITA        PTSUNNY   93  65  39 CALM      29.95S HX  95
OMAHA          CLOUDY    76  63  64 NW8       30.03R
LINCOLN        LGT RAIN  71  65  81 N8        30.05F
FALLS CITY     CLOUDY    79  73  82 MISG      29.99F
LAMONI         CLOUDY    77  72  84 SW5       29.99F
DES MOINES     CLOUDY    81  71  71 SW8       29.97R

$$




USA.gov is the U.S. government's official web portal to all federal, state and local government web resources and services.